Location: Kleinsteinhausen
(49.1999°N, 7.4698°E)
Time: 13:39:32
(UTC+00:00)

Daily predictions for brighter satellites

Satellite Brightness Start Highest point End
(mag) Time Altitude Azimuth Time Altitude Azimuth Time Altitude Azimuth
STARLINK-1097 4.0 18:24:59 10° WNW 18:29:04 58° NNE 18:33:10 10° E
Cosmos 1766 3.3 18:25:11 10° S 18:29:08 68° E 18:33:07 10° NNE
STARLINK-1066 4.0 18:27:50 10° WNW 18:30:50 40° SW 18:33:49 10° SE
ADEOS Rocket 3.3 18:24:07 10° NNE 18:31:03 85° WNW 18:37:13 10° SSW
STARLINK-1081 4.0 18:28:20 10° WNW 18:31:17 40° SW 18:34:14 10° SE
STARLINK-67 2.4 18:28:47 10° WSW 18:31:21 79° NNW 18:33:56 10° ENE
USA 234 4.0 18:26:00 10° ENE 18:31:38 30° SE 18:37:14 10° S
STARLINK-1070 4.0 18:28:46 10° WNW 18:31:43 39° SW 18:34:40 10° SE
STARLINK-1201 3.1 18:28:36 10° SW 18:31:50 61° SSE 18:35:04 10° ENE
STARLINK-1069 4.0 18:29:12 10° WNW 18:32:11 39° SW 18:35:09 10° SE
STARLINK-1085 4.0 18:29:39 10° WNW 18:32:37 39° SW 18:35:36 10° SE
STARLINK-1086 4.0 18:30:09 10° WNW 18:33:05 38° SW 18:36:01 10° SE
STARLINK-1224 3.9 18:29:24 10° SW 18:33:17 46° SE 18:37:12 10° ENE
Cosmos 1626 2.5 18:29:45 10° N 18:33:18 42° ENE 18:36:49 10° SSE
STARLINK-1095 4.0 18:30:36 10° WNW 18:33:32 38° SW 18:36:28 10° SE
STARLINK-1077 4.0 18:31:03 10° WNW 18:33:58 38° SW 18:36:54 10° SE
STARLINK-1099 3.9 18:29:58 10° WNW 18:34:05 60° NNE 18:38:12 10° E
STARLINK-1075 4.1 18:31:30 10° WNW 18:34:25 38° SW 18:37:21 10° SE
STARLINK-1093 4.1 18:31:54 10° WNW 18:34:52 38° SW 18:37:49 10° SE
STARLINK-1203 3.8 18:31:03 10° SW 18:34:54 49° SSE 18:38:46 10° ENE
STARLINK-1074 4.1 18:32:22 10° WNW 18:35:20 37° SW 18:38:16 10° SE
STARLINK-1087 4.1 18:32:50 10° WNW 18:35:46 37° SW 18:38:40 10° SE
H-2A R/B 2.2 18:30:37 10° SSE 18:35:49 59° ENE 18:40:55 10° N
STARLINK-1088 4.1 18:33:18 10° WNW 18:36:14 36° SW 18:39:08 10° SE
STARLINK-1115 4.1 18:33:44 10° WNW 18:36:41 36° SW 18:39:37 10° SE
HJ-1C 3.6 18:33:31 10° S 18:36:51 78° WSW 18:40:15 10° NNW
STARLINK-1076 4.1 18:34:11 10° WNW 18:37:07 36° SW 18:40:03 10° SSE
STARLINK-1092 4.2 18:34:37 10° WNW 18:37:34 36° SW 18:40:30 10° SSE
SL-16 R/B 2.6 18:32:33 10° S 18:37:48 41° ESE 18:43:05 10° NE
STARLINK-1225 3.9 18:33:59 10° SW 18:37:55 49° SE 18:41:51 10° ENE
STARLINK-1080 4.2 18:35:07 10° WNW 18:38:01 35° SW 18:40:54 10° SSE
STARLINK-1090 4.2 18:35:34 10° WNW 18:38:28 35° SW 18:41:21 10° SSE
STARLINK-1072 3.9 18:34:47 10° WNW 18:38:48 61° SSW 18:42:46 10° SE
STARLINK-1089 4.2 18:36:01 10° WNW 18:38:55 35° SW 18:41:47 10° SSE
STARLINK-1104 3.9 18:34:58 10° WNW 18:39:05 61° NNE 18:43:11 10° E
STARLINK-1107 4.2 18:36:30 10° WNW 18:39:22 34° SW 18:42:15 10° SSE
Cosmos 2333 Rocket 4.0 18:34:56 10° WSW 18:40:08 36° NW 18:45:22 10° NNE
SL-08 RB Rocket 4.3 18:36:18 10° SE 18:40:29 38° ENE 18:44:43 10° N
Resurs 01 Rocket 3.1 18:39:11 10° ESE 18:42:23 20° ENE 18:45:36 10° NNE
STARLINK-1230 3.8 18:38:41 10° SW 18:42:38 52° SSE 18:46:37 10° ENE
STARLINK-1096 4.0 18:39:09 10° WNW 18:43:08 58° SSW 18:47:05 10° SE
STARLINK-1144 3.9 18:39:57 10° WNW 18:44:04 64° NNE 18:47:59 11° E
STARLINK-1233 2.8 18:42:06 10° WSW 18:45:14 78° SSE 18:48:24 10° ENE
STARLINK-1212 2.8 18:42:35 10° WSW 18:45:42 78° SSE 18:48:51 10° ENE
STARLINK-1105 2.8 18:43:01 10° WSW 18:46:08 79° SSE 18:49:17 10° ENE
FREGAT/IRIS 2.4 18:43:45 10° SSE 18:46:25 56° ENE 18:49:07 10° N
STARLINK-1206 2.8 18:43:30 10° WSW 18:46:37 79° SSE 18:49:45 10° ENE
Cosmos 1302 Rocket 4.1 18:41:45 10° NNW 18:47:01 65° ENE 18:52:16 10° SE
STARLINK-1247 2.8 18:43:56 10° WSW 18:47:03 80° SSE 18:50:11 10° ENE
STARLINK-1243 3.7 18:43:28 10° SW 18:47:27 56° SSE 18:51:27 10° ENE
STARLINK-1227 2.8 18:44:22 10° WSW 18:47:30 80° SSE 18:50:39 10° ENE
STARLINK-1218 2.8 18:44:50 10° WSW 18:47:57 81° SSE 18:51:05 10° ENE
STARLINK-1079 4.1 18:44:13 10° WNW 18:48:10 54° SSW 18:52:06 10° SE
Abrixas rocket 4.0 18:46:57 10° S 18:48:20 13° SE 18:49:06 12° SE
STARLINK-1226 2.8 18:45:17 10° WSW 18:48:24 81° SSE 18:51:33 10° ENE
STARLINK-1254 2.8 18:45:43 10° WSW 18:48:51 82° SSE 18:52:00 10° ENE
STARLINK-1103 3.8 18:44:55 10° WNW 18:49:03 66° NNE 18:52:45 13° E
STARLINK-1215 2.8 18:46:12 10° WSW 18:49:19 82° SSE 18:52:26 10° ENE
Cosmos 304 Rocket 4.2 18:44:57 10° NNW 18:49:43 66° WSW 18:54:26 10° S
STARLINK-1231 2.8 18:46:38 10° WSW 18:49:45 83° SSE 18:52:52 10° ENE
Cosmos 1709 Rocket 4.0 18:43:56 10° N 18:50:10 69° ENE 18:56:17 10° SSE
SeaSat 1 3.7 18:45:50 10° NNE 18:50:32 46° NW 18:55:14 10° WSW
STARLINK-1232 2.8 18:47:32 10° WSW 18:50:39 84° SSE 18:53:48 10° ENE
Cosmos 1953 3.7 18:48:12 10° SE 18:51:02 19° E 18:53:52 10° NE
STARLINK-1217 2.8 18:48:00 10° WSW 18:51:07 84° SSE 18:54:14 10° ENE
STARLINK-1208 2.8 18:48:24 10° WSW 18:51:31 85° SSE 18:54:42 10° ENE
STARLINK-1229 2.8 18:48:53 10° WSW 18:52:00 86° SSE 18:55:08 10° ENE
STARLINK-1236 3.6 18:48:12 10° SW 18:52:13 60° SSE 18:56:15 10° ENE
STARLINK-1271 2.8 18:49:20 10° WSW 18:52:27 86° SSE 18:55:36 10° ENE
STARLINK-1116 4.2 18:48:39 10° WNW 18:52:35 50° SSW 18:56:26 10° SE
STARLINK-1270 2.8 18:49:48 10° WSW 18:52:55 87° SSE 18:56:03 10° ENE
STARLINK-1154 2.8 18:50:15 10° WSW 18:53:22 87° SSE 18:56:30 10° ENE
STARLINK-1101 3.8 18:49:54 10° WNW 18:54:02 69° NNE 18:57:32 14° E
STARLINK-1197 2.8 18:51:09 10° WSW 18:54:16 88° S 18:57:25 10° ENE
Cosmos 1269 Rocket 4.0 18:49:25 10° S 18:54:40 67° ESE 18:59:57 10° NNE
STARLINK-1189 2.8 18:51:36 10° WSW 18:54:43 89° SSE 18:57:51 10° ENE
MONITOR-E 3.7 18:52:19 10° SSE 18:54:56 69° ENE 18:57:35 10° N
STARLINK-1187 2.9 18:52:26 10° WSW 18:55:35 84° NNW 18:58:44 10° ENE
STARLINK-1188 2.8 18:52:30 10° WSW 18:55:37 90° SSE 18:58:46 10° ENE
STARLINK-1198 2.8 18:52:31 10° WSW 18:55:38 90° SSE 18:58:46 10° ENE
STARLINK-1235 3.0 18:53:09 10° WSW 18:56:17 77° NNW 18:59:27 10° ENE
CZ-4C R/B 4.2 18:51:46 10° WNW 18:56:35 28° NNW 19:02:12 10° NE
STARLINK-1199 2.8 18:54:26 10° WSW 18:57:34 88° NNW 19:00:44 10° ENE
STARLINK-1191 2.8 18:54:53 10° WSW 18:58:01 88° NNW 19:01:09 10° ENE
STARLINK-1210 2.8 18:55:20 10° WSW 18:58:29 87° NNW 19:01:35 10° ENE
STARLINK-1221 2.9 18:55:47 10° WSW 18:58:56 87° NNW 19:02:02 10° ENE
STARLINK-1102 3.7 18:54:52 10° WNW 18:59:01 71° NNE 19:02:19 16° ESE
STARLINK-1219 2.9 18:56:14 10° WSW 18:59:23 86° NNW 19:02:29 11° ENE
STARLINK-1222 2.9 18:56:42 10° WSW 18:59:50 86° NNW 19:02:54 11° ENE
ISS -3.6 18:56:50 10° WNW 19:00:11 65° NNE 19:02:41 17° E
STARLINK-1211 2.9 18:57:09 10° WSW 19:00:17 85° NNW 19:03:20 11° ENE
STARLINK-1214 2.9 18:57:36 10° WSW 19:00:44 85° NNW 19:03:46 11° ENE
STARLINK-1245 2.9 18:58:05 10° WSW 19:01:11 84° NNW 19:04:10 11° ENE
Cosmos 2297 3.8 18:55:46 10° NNW 19:01:27 80° WSW 19:07:09 10° SSE
STARLINK-1238 2.9 18:58:27 10° WSW 19:01:36 84° NNW 19:04:37 11° ENE
STARLINK-1094 4.4 18:57:56 10° WNW 19:01:49 44° SW 19:05:21 12° SE
STARLINK-1269 3.5 18:57:59 10° SW 19:02:02 68° SSE 19:06:05 10° ENE
Cosmos 1455 Rocket 3.2 18:58:06 10° SSW 19:02:26 80° W 19:06:50 10° N
STARLINK-1205 2.9 18:59:23 10° WSW 19:02:30 83° NNW 19:05:27 11° ENE
BREEZE-M DEB (TANK) 4.0 18:54:00 10° W 19:02:45 85° N 19:05:20 16° E
STARLINK-1204 2.9 18:59:52 10° WSW 19:03:00 82° NNW 19:05:54 12° ENE
Cosmos 2084 Rocket 3.9 18:59:18 10° NW 19:03:40 51° NE 19:06:58 17° ESE
STARLINK-1111 3.7 18:59:52 10° WNW 19:04:01 75° NNE 19:07:06 17° ESE
STARLINK-1200 3.5 19:02:46 10° SW 19:06:50 72° SSE 19:10:50 10° ENE
Cosmos 2237 Rocket 3.1 19:01:48 10° SW 19:07:18 54° NW 19:12:50 10° NNE
CZ-2C R/B 3.4 19:04:01 10° NNE 19:08:31 29° E 19:12:59 10° SSE
STARLINK-1073 3.6 19:04:51 10° WNW 19:09:01 78° NNE 19:11:53 19° ESE
Cosmos 1626 Rocket 3.5 19:04:39 10° N 19:09:05 75° E 19:13:26 10° SSE
STARLINK-1192 3.5 19:07:30 10° WSW 19:11:35 77° SSE 19:15:24 12° ENE
STARLINK-1121 3.6 19:09:49 10° WNW 19:13:59 81° NNE 19:16:39 21° ESE
Cosmos 292 Rocket 4.1 19:10:38 10° NNW 19:15:18 49° ENE 19:18:32 19° SE
ARGOS 3.3 19:10:50 10° SSE 19:16:14 79° WSW 19:21:40 10° NNW
STARLINK-1244 3.5 19:12:25 10° WSW 19:16:30 81° SSE 19:20:08 13° ENE
Cosmos 1602 Rocket 3.5 19:12:36 10° N 19:17:05 71° ENE 19:21:30 10° SSE
IRIDIUM 104 4.5 19:13:21 10° N 19:18:29 54° E 19:23:34 10° SSE
STARLINK-1106 3.6 19:14:46 10° WNW 19:18:56 85° NNE 19:21:25 23° ESE
STARLINK-1138 3.5 19:17:00 10° WSW 19:21:06 85° SSE 19:24:34 14° ENE
STARLINK-1234 3.3 19:19:09 10° W 19:22:05 54° NNW 19:24:04 18° ENE
MOS 1 Rocket 4.0 19:18:02 10° NNE 19:22:58 40° E 19:28:01 10° SSE
USA 186 3.0 19:20:13 10° S 19:23:32 45° W 19:26:49 10° NNW
STARLINK-1112 3.6 19:19:47 10° WNW 19:23:58 89° NE 19:26:14 26° ESE
STARLINK-1143 3.5 19:21:54 10° WSW 19:26:00 89° SSE 19:29:16 16° ENE
MetOp-A 4.1 19:21:33 10° SSE 19:26:54 77° ENE 19:32:17 10° NNW
IRIDIUM 114 4.3 19:22:28 10° N 19:27:41 65° E 19:32:51 10° SSE
COSMOS 2455 4.5 19:23:28 10° NNW 19:28:04 22° NNE 19:32:01 12° ENE
CZ-2C R/B 3.6 19:23:45 10° S 19:28:42 57° W 19:33:29 10° NNW
STARLINK-1128 3.6 19:24:46 10° WNW 19:28:55 87° SSW 19:31:01 28° ESE
Cosmos 1544 Rocket 4.3 19:25:45 10° SSW 19:30:04 56° WNW 19:34:28 10° N
Cosmos 1437 3.5 19:28:38 10° N 19:31:23 30° ENE 19:31:24 30° ENE
Cosmos 1470 2.8 19:28:10 10° SSW 19:32:02 79° W 19:35:57 10° N
STARLINK-1113 3.6 19:29:44 10° WNW 19:33:54 82° SSW 19:35:48 31° ESE
STARLINK-1241 3.5 19:30:16 10° WSW 19:34:19 84° NNW 19:37:13 19° ENE
SPOT 3 Rocket 3.6 19:30:08 10° SSE 19:35:23 84° WSW 19:40:38 10° NNW
Cosmos 1825 Rocket 3.9 19:31:51 10° N 19:36:08 45° ENE 19:37:53 30° SE
IRIDIUM 103 4.2 19:31:37 10° N 19:36:53 77° E 19:42:00 10° S
NOSS 3-4 (A) 4.5 19:31:46 10° NW 19:38:08 42° NNE 19:42:42 20° E
NOSS 3-4 (C) 4.5 19:31:52 10° NW 19:38:13 41° NNE 19:42:48 20° E
STARLINK-1119 3.6 19:34:43 10° WNW 19:38:52 78° SSW 19:40:34 34° SE
STARLINK-1239 3.6 19:35:11 10° WSW 19:39:15 80° NNW 19:41:56 20° ENE
Cosmos 2369 Rocket 2.2 19:34:11 10° NNW 19:39:54 72° ENE 19:43:14 26° SE
SJ-6B 4.0 19:37:44 10° S 19:41:39 45° W 19:45:38 10° NNW
Cosmos 1726 2.3 19:42:57 39° SE 19:43:46 46° E 19:47:23 10° NNE
STARLINK-1114 3.6 19:39:44 10° WNW 19:43:53 74° SSW 19:45:24 37° SE
STARLINK-1240 3.6 19:39:55 10° WSW 19:43:59 77° NNW 19:46:29 22° ENE
Aureole 2 Rocket 2.3 19:41:30 10° NNW 19:45:01 76° ENE 19:45:56 46° SE
Cosmos 2263 4.3 19:40:20 10° NNW 19:45:55 60° ENE 19:48:35 30° SE
Cosmos 1758 Rocket 3.5 19:41:35 10° N 19:45:57 66° ENE 19:47:54 31° SSE
Cosmos 1758 3.8 19:41:59 10° SSW 19:46:03 62° WNW 19:50:07 10° N
CZ-2C R/B 3.8 19:43:56 10° NNE 19:48:43 82° WNW 19:53:25 10° SSW
STARLINK-1216 3.7 19:44:40 10° WSW 19:48:43 74° NNW 19:51:02 24° ENE
STARLINK-1130 (DARKSAT) 3.7 19:44:42 10° WNW 19:48:51 69° SSW 19:50:10 41° SE
NOSS 3-3 (A) 4.2 19:43:34 10° S 19:49:01 42° ESE 19:55:08 10° NE
NOSS 3-3 (C) 4.2 19:43:41 10° S 19:49:08 42° ESE 19:55:14 10° NE
STARLINK-1209 3.8 19:49:17 10° W 19:52:06 41° N 19:52:50 34° NNE
Cosmos 1953 Rocket 3.9 19:48:07 10° N 19:52:25 46° ENE 19:53:22 39° ESE
STARLINK-1237 3.7 19:49:28 10° WSW 19:53:31 71° NNW 19:55:38 27° ENE
STARLINK-1084 3.7 19:49:41 10° WNW 19:53:47 65° SSW 19:54:56 44° SSE
STARLINK-1228 3.8 19:51:30 10° W 19:54:16 40° N 19:54:50 35° NNE
Terra 3.5 19:53:53 17° ENE 19:54:17 18° ENE 19:57:24 10° NNE
Cosmos 2184 Rocket 3.9 19:48:40 10° N 19:55:03 81° E 19:59:37 20° SSE
IRIDIUM 106 4.4 19:49:55 10° N 19:55:09 77° W 20:00:13 11° S
Spot 2 Rocket 3.7 19:55:41 35° SE 19:57:29 53° ENE 20:02:28 10° N
STARLINK-1202 3.8 19:54:13 10° WSW 19:58:16 68° NNW 20:00:11 29° ENE
STARLINK-1098 3.8 19:54:41 10° WNW 19:58:46 61° SSW 19:59:43 46° SSE
Cosmos 1606 Rocket 3.7 19:59:07 44° SE 19:59:59 52° E 20:04:19 10° NNE
Cosmos 1943 Rocket 2.4 19:55:47 10° NNW 20:01:16 65° WSW 20:04:35 24° S
Meteor 1-21 Rocket 4.5 19:56:02 10° NNW 20:01:34 68° W 20:06:08 15° S
SPOT 1/Viking Rocket 4.1 20:00:50 35° E 20:02:02 40° ENE 20:06:53 10° N
ERBS 4.5 19:59:56 10° WNW 20:02:43 23° N 20:04:36 15° NE
STARLINK-1123 3.9 19:59:40 10° WNW 20:03:44 57° SSW 20:04:30 48° S
Cosmos 1943 3.4 20:01:04 23° S 20:04:17 45° ESE 20:09:41 10° NE
STARLINK-1246 3.9 20:01:26 10° W 20:05:30 64° NNW 20:07:11 33° NE
STARLINK-67 4.1 20:03:10 10° WNW 20:05:15 31° NNW 20:05:15 31° NNW
Meteor 2-10 4.0 20:01:05 10° S 20:06:26 81° E 20:12:01 10° NNE
SL-8 R/B 3.7 20:01:42 10° W 20:06:28 70° SSW 20:07:34 50° SE
STARLINK-1201 3.8 20:05:01 10° W 20:08:11 45° N 20:08:41 41° NNE
Resurs 1-3 4.4 20:05:32 18° S 20:08:38 49° W 20:12:55 10° NNW
STARLINK-1097 3.9 20:04:38 10° WNW 20:08:41 53° SSW 20:09:16 48° S
ATLAS 2AS CENTAUR R/B 3.1 20:03:29 10° NW 20:11:09 58° NE 20:14:22 34° ESE
STARLINK-1224 4.0 20:08:35 10° W 20:12:37 61° NNW 20:13:58 38° NE
STARLINK-1099 4.0 20:09:38 10° WNW 20:13:40 50° SW 20:14:04 47° SSW
STARLINK-1203 4.0 20:10:00 10° W 20:13:55 58° NNW 20:15:07 39° NE
USA 234 3.2 20:08:38 10° ENE 20:15:14 85° SSE 20:21:47 10° SW
H-2A R/B 4.3 20:11:30 10° SW 20:15:36 22° W 20:19:39 10° NW
Cosmos 2154 Rocket 3.9 20:09:45 10° N 20:16:10 77° E 20:18:59 35° SSE
USA 245 4.1 20:15:17 48° SE 20:16:41 70° ENE 20:22:35 10° N
STARLINK-1225 4.0 20:13:11 10° W 20:17:13 59° NNW 20:18:23 41° NE
DMSP B5D2-2 4.4 20:13:01 10° N 20:18:13 67° WNW 20:23:23 10° SSW
Resurs 01 Rocket 2.2 20:16:28 29° SSW 20:18:31 55° W 20:22:52 10° NNW
STARLINK-1104 4.1 20:14:38 10° WNW 20:18:37 46° SW 20:18:51 46° SSW
Cosmos 1328 3.6 20:16:11 10° N 20:20:13 89° ESE 20:20:25 81° SSE
STARLINK-1233 4.1 20:18:13 10° W 20:21:02 40° NNW 20:21:02 40° NNW
STARLINK-1212 4.1 20:18:42 10° W 20:21:27 40° NNW 20:21:27 40° NNW
Cosmos 921 Rocket 4.2 20:18:11 10° N 20:21:21 28° NE 20:21:21 28° NE
SL-16 R/B 3.6 20:16:39 10° WSW 20:21:58 40° NW 20:27:18 10° NNE
STARLINK-1230 4.1 20:17:58 10° W 20:21:59 58° NNW 20:22:57 44° NE
STARLINK-1105 4.1 20:19:08 10° W 20:21:54 40° NNW 20:21:54 40° NNW
STARLINK-1206 4.2 20:19:37 10° W 20:22:19 39° NNW 20:22:19 39° NNW
STARLINK-1247 4.2 20:20:04 10° W 20:22:44 39° NNW 20:22:44 39° NNW
Cosmos 2228 2.8 20:22:39 70° S 20:23:07 84° E 20:27:27 10° N
STARLINK-1227 4.2 20:20:30 10° W 20:23:12 39° NNW 20:23:12 39° NNW
STARLINK-1144 4.3 20:19:39 10° WNW 20:23:35 43° SW 20:23:38 43° SSW
STARLINK-1218 4.2 20:20:59 10° WNW 20:23:36 38° NNW 20:23:36 38° NNW
Cosmos 967 Rocket 4.4 20:17:53 10° SSW 20:24:15 66° ESE 20:30:41 10° NE
STARLINK-1226 4.2 20:21:26 10° WNW 20:24:03 38° NNW 20:24:03 38° NNW
STARLINK-1254 4.2 20:21:51 10° WNW 20:24:30 39° NNW 20:24:30 39° NNW
STARLINK-1215 4.3 20:22:21 10° WNW 20:24:54 38° NNW 20:24:54 38° NNW
STARLINK-1231 4.3 20:22:47 10° WNW 20:25:19 37° NNW 20:25:19 37° NNW
STARLINK-1232 4.3 20:23:42 10° WNW 20:26:12 37° NNW 20:26:12 37° NNW
STARLINK-1243 4.1 20:22:49 10° W 20:26:50 56° NNW 20:27:35 47° NNE
STARLINK-1217 4.3 20:24:09 10° WNW 20:26:38 37° NNW 20:26:38 37° NNW
Cosmos 1953 3.6 20:23:23 10° SW 20:27:08 40° WNW 20:30:55 10° N
STARLINK-1208 4.3 20:24:34 10° WNW 20:27:05 37° NNW 20:27:05 37° NNW
STARLINK-1229 4.4 20:25:03 10° WNW 20:27:29 36° NNW 20:27:29 36° NNW
STARLINK-1271 4.4 20:25:30 10° WNW 20:27:56 36° NNW 20:27:56 36° NNW
STARLINK-1103 4.4 20:24:38 10° WNW 20:28:25 40° SW 20:28:25 40° SW
STARLINK-1270 4.4 20:25:58 10° WNW 20:28:22 36° NW 20:28:22 36° NW
STARLINK-1154 4.4 20:26:25 10° WNW 20:28:48 35° NW 20:28:48 35° NW
STARLINK-1197 4.5 20:27:20 10° WNW 20:29:41 35° NW 20:29:41 35° NW
Cosmos 962 Rocket 4.5 20:24:15 10° N 20:30:25 63° ENE 20:31:43 51° SE
STARLINK-1189 4.5 20:27:46 10° WNW 20:30:07 34° NW 20:30:07 34° NW
STARLINK-1236 4.1 20:27:37 10° W 20:31:38 55° NNW 20:32:12 50° NNE
Nadezhda 1 Rocket 4.0 20:29:47 23° S 20:34:00 90° ESE 20:40:26 10° N
SL-8 Rocket 4.2 20:30:12 10° N 20:36:18 49° ENE 20:37:01 47° E
ISS -1.9 20:33:45 10° WNW 20:35:39 27° W 20:35:39 27° W
STARLINK-1269 4.2 20:37:34 10° W 20:41:34 52° N 20:41:43 52° N
Cosmos 2058 Rocket 3.4 20:42:38 56° NE 20:42:38 56° NE 20:46:18 10° NNE
MetOp-B 4.5 20:40:10 40° SSW 20:41:57 61° WSW 20:47:18 10° NNW
Cosmos 1603 3.7 20:37:50 10° SSW 20:43:29 79° WNW 20:49:08 10° NNE
SPOT 5 3.2 20:44:26 47° NNE 20:44:26 47° NNE 20:47:56 10° N
Cosmos 1703 4.0 20:39:56 10° NNW 20:43:44 48° W 20:43:49 48° W
Cosmos 2366 rocket 4.3 20:38:13 10° N 20:44:05 44° ENE 20:44:18 44° ENE
Cosmos 2251 Rocket 4.2 20:39:09 10° SW 20:44:25 55° WNW 20:49:44 10° NNE
STARLINK-1200 4.3 20:42:25 10° W 20:46:21 51° NNW 20:46:21 51° NNW
CZ-4C R/B 4.4 20:42:11 10° NW 20:47:15 24° N 20:53:02 10° ENE
IGS 5A 3.8 20:49:02 65° NW 20:49:02 65° NW 20:52:42 10° NNW
ERS-1 Rocket 2.9 20:48:38 75° ENE 20:48:38 75° ENE 20:53:38 10° NNW
CZ-2C R/B 3.6 20:44:04 10° N 20:48:59 44° WNW 20:53:52 10° SW
Landsat 7 3.8 20:49:40 75° SW 20:49:51 76° WSW 20:54:38 10° NNW
STARLINK-1192 4.4 20:47:13 10° W 20:50:56 49° NNW 20:50:56 49° NNW
Cosmos 1656 Rocket 3.9 20:55:51 10° NW 21:01:27 60° WSW 21:02:03 57° SW
Aureole 1 Rocket 4.2 21:01:51 38° SSW 21:05:11 80° ESE 21:11:41 10° NNE
CARTOSAT-1 4.3 21:07:29 50° NNW 21:07:29 50° NNW 21:10:44 10° NNW
COSMOS 2455 2.9 21:09:08 10° NNW 21:15:09 66° NE 21:15:09 66° NE
In-Cosmos 22 Rocket 4.3 21:14:50 10° N 21:20:10 70° NNE 21:20:10 70° NNE
Cosmos 2341 Rocket 4.2 21:15:27 10° NNW 21:21:44 65° W 21:22:43 57° SW
Cosmos 1461 4.2 21:17:51 10° NW 21:20:56 42° NNW 21:20:56 42° NNW
Cosmos 2369 Rocket 4.0 21:19:10 10° NW 21:23:21 21° W 21:25:03 19° SW
NOSS 3-4 (A) 3.8 21:22:38 10° NW 21:29:33 70° SW 21:30:09 67° SSW
NOSS 3-4 (C) 3.8 21:22:44 10° NW 21:29:39 71° SW 21:30:14 68° SSW
Terra 2.7 21:32:45 48° NNW 21:32:45 48° NNW 21:36:16 10° NNW
ATLAS CENTAUR R/B 4.1 21:30:03 10° N 21:31:42 12° NNE 21:31:52 12° NNE
Cosmos 2218 Rocket 4.2 21:42:42 10° NNW 21:48:36 64° W 21:48:36 64° W
USA 234 3.9 21:51:44 10° ENE 21:58:01 52° NNW 22:04:19 10° W
Cosmos 2181 Rocket 4.4 22:00:17 54° W 22:00:30 55° WNW 22:06:38 10° N
ATLAS 2AS CENTAUR R/B 3.4 21:54:56 10° NW 22:01:48 44° WSW 22:01:48 44° WSW
Cosmos 1697 Rocket 3.9 22:06:00 10° NNW 22:10:12 36° NNE 22:10:12 36° NNE
Mayak 1.3 22:14:23 10° N 22:15:32 18° N 22:15:32 18° N
Cosmos 1980 Rocket 3.6 22:31:33 10° NNW 22:35:28 32° NNE 22:35:28 32° NNE
CZ-4C R/B 3.6 22:31:06 10° NW 22:37:33 43° NNE 22:38:44 41° ENE
Cosmos 2082 Rocket 4.4 23:00:52 16° NE 23:00:52 16° NE 23:02:10 10° NE
ATLAS 5 CENTAUR R/B 4.1 23:20:05 20° NNE 23:20:05 20° NNE 23:21:52 10° NNE
Cosmos 1833 Rocket 4.3 23:28:31 29° NNE 23:28:31 29° NNE 23:31:09 10° NNE
USA 234 4.1 23:34:14 10° ENE 23:40:25 46° N 23:46:35 10° WNW
SL-16 R/B 3.8 23:52:44 32° ENE 23:52:58 32° ENE 23:58:22 10° N
